METEOR 2-6 DEB, 29199

Orbit data source: Space-Track

METEOR 2-6 DEB, 29199 is space debris in LEO originally from a launch on Tue, 09 Sep 1980 UTC launched from the Plesetsk Missile And Space Complex (PKMTR). Debris objects in space refer to the collection of defunct objects orbiting the Earth. Examples of debris include non-operational satellites, rocket bodies, and fragments generated from explosions, collisions, or faulty payload assembly.

Loading next visibility...
Identifier
29199, 1980-073E
Orbit
LEO
Country
Flag of CISCIS
Related business
Manufacturer
Unknown
Mission
Spacecraft
Bus & Motor
Unknown
Mass
Unknown
Launch date (UTC)
1980-09-09 (46 years ago)
Launch vehicle
Unknown
Launch site
Plesetsk Missile And Space Complex (PKMTR)
Object type
Payload
Rocket body
Debris
Shape & HBR
Unknown shape, 1.1 m
Radar Cross Section
Medium (>0.1 m² and <1 m²)

Expand to show TLE details & history
Last TLE update: 2 months ago

TLE from 2 months ago
0 METEOR 2-6 DEB
1 29199U 80073E   26209.28423339  .00045725  00000-0  41438-2 0  9996
2 29199  81.1870 203.8063 0009634 158.6076 201.5546 14.95100751 52669
Epoch: 2026-07-28T06:49Z
TLE epoch observation values (Epoch: 2026-07-28T06:49:17.764Z)
Latitude
-0.00004°
Longitude
155.52661°
Altitude
591.312 km
Speed
7.561 km/s
True Right ascension
13h 35m 13s
True Declination
0° 00' 00"
Sunlit
Object was in daylight at epoch
Visualization orbit readout
Latitude
Unknown
Longitude
Unknown
Altitude
Unknown
Speed
Unknown
Apparent Right ascension
Unknown
Apparent Declination
Unknown
Sunlit
N/A
Visualization observer readout
Local Sidereal Time
10:06:47
Azimuth
Unknown
Elevation
Unknown
Doppler factor
Unknown
Orbital elements
Apogee altitude
585.827 km
Perigee altitude
572.422 km
Semi-major axis
6,957.261 km
Eccentricity
0.00096
Inclination
81.187°
RAAN
203.8063°
Arg. of periapsis
158.6076°
True anomaly
201.51409°
Mean anomaly
201.5546°
Eccentric anomaly
201.53434°
Mean motion
3.74012 °/min
Orbital period
96.25 mins
BSTAR
0.0041438
Loading maneuver chart data...
Computing Atmospheric mass density...
Loading historical data...
Loading historical data...
Loading historical data...
Loading historical data...
Loading historical data...
Loading historical data...
Loading historical data...

Documentation

Showing up to 5 results
|